This is the latest recevied weather packets stored in our database for station/object KD2DXJ. If no packets are shown the sender has not sent any weather packets the latest 10 day(s).
| Time | Temp. | Humidity | Pressure | Rain* | Wind** | Luminosity | Snow |
|---|---|---|---|---|---|---|---|
| 1778142362 | 2.78° C | 83% | 1009.4 hPa | 0 mm | - | 0 W/m² | - |
| 1778142059 | 3.33° C | 83% | 1009.3 hPa | 0 mm | - | 0 W/m² | - |
| 1778141755 | 3.33° C | 82% | 1009.3 hPa | 0 mm | - | 0 W/m² | - |
| 1778141452 | 3.33° C | 81% | 1009.3 hPa | 0 mm | - | 0 W/m² | - |
| 1778141148 | 3.33° C | 83% | 1009.4 hPa | 0 mm | - | 0 W/m² | - |
| 1778140844 | 3.33° C | 81% | 1009.2 hPa | 0 mm | - | 0 W/m² | - |
| 1778140540 | 3.89° C | 83% | 1009.3 hPa | 0 mm | - | 0 W/m² | - |
| 1778140236 | 3.89° C | 82% | 1009.2 hPa | 0 mm | - | 0 W/m² | - |
| 1778139933 | 3.89° C | 82% | 1009.1 hPa | 0 mm | - | 0 W/m² | - |
| 1778139632 | 3.89° C | 82% | 1008.7 hPa | 0 mm | - | 0 W/m² | - |
| 1778139327 | 3.89° C | 82% | 1008.6 hPa | 0 mm | - | 0 W/m² | - |
| 1778139024 | 4.44° C | 83% | 1008.7 hPa | 0 mm | - | 0 W/m² | - |
| 1778138722 | 4.44° C | 82% | 1008.6 hPa | 0 mm | - | 0 W/m² | - |
| 1778138419 | 4.44° C | 82% | 1008.6 hPa | 0 mm | - | 0 W/m² | - |
| 1778138116 | 4.44° C | 82% | 1008.8 hPa | 0 mm | - | 0 W/m² | - |
| 1778137812 | 5° C | 80% | 1009 hPa | 0 mm | - | 0 W/m² | - |
| 1778137510 | 5° C | 83% | 1009 hPa | 0 mm | - | 0 W/m² | - |
| 1778137207 | 5° C | 81% | 1008.9 hPa | 0 mm | - | 0 W/m² | - |
| 1778136903 | 5° C | 81% | 1009 hPa | 0 mm | - | 0 W/m² | - |
| 1778136600 | 5° C | 81% | 1008.7 hPa | 0 mm | - | 0 W/m² | - |
| 1778136298 | 5° C | 82% | 1008.9 hPa | 0 mm | - | 0 W/m² | - |
| 1778135996 | 5° C | 82% | 1009.1 hPa | 0 mm | - | 0 W/m² | - |
| 1778135693 | 5° C | 80% | 1008.7 hPa | 0 mm | - | 0 W/m² | - |
| 1778135390 | 5.56° C | 81% | 1008.5 hPa | 0 mm | - | 0 W/m² | - |
| 1778135087 | 5.56° C | 85% | 1008.7 hPa | 0 mm | - | 0 W/m² | - |
* Rain latest hour (hover to see other rain measurements)
** Current wind speed in m/s (hover to see current wind gust speed)